Regional Weather Roundup
Issued by NWS

Home | Current Version | Previous Version | Graphics & Text | Print | Product List | Glossary On
Versions: 1 2 3 4 5 6 7 8 9 10 11 12 13 14 15 16 17 18 19 20 21 22 23 24 25 26 27 28 29 30 31 32 33 34 35 36 37 38 39 40 41 42 43 44 45 46 47 48 49 50
177
ASUS45 KCYS 190710
RWRWY

WYOMING REGIONAL WEATHER ROUNDUP
NATIONAL WEATHER SERVICE CHEYENNE WY
1200 AM MST SUN FEB 19 2017

NOTE:  "FAIR" INDICATES FEW OR NO CLOUDS BELOW 12,000 FEET
WITH NO SIGNIFICANT WEATHER AND/OR OBSTRUCTIONS TO VISIBILITY.

WYZ001-190800-
YELLOWSTONE NATIONAL PARK

CITY           SKY/WX    TMP DP  RH WIND       PRES   REMARKS
LK YELLOWSTONE   N/A     31  30  96 CALM      29.61F
W YELLOWSTONE  NOT AVBL

$$
WYZ002>013-054>058-071-098>099-190800-
NORTHERN WYOMING

CITY           SKY/WX    TMP DP  RH WIND       PRES   REMARKS
JACKSON        CLOUDY    34  32  93 W12       29.61F WCI  25
CODY           FAIR      39  29  67 S7        29.53F WCI  34
GREYBULL       FAIR      42  32  67 E12       29.52F
WORLAND        FAIR      36  32  85 SE6       29.54F WCI  31
SHERIDAN       FAIR      32  28  85 S3        29.51F
BUFFALO        FAIR      48  27  44 S20       29.53F
GILLETTE       FAIR      47  34  60 S25G32    29.54F
HULETT         FAIR      48  32  53 SW9       29.58F
NEWCASTLE      FAIR      41  30  65 W6        29.64F

$$
WYZ014>020-022>026-101>103-190800-
CENTRAL WYOMING

CITY           SKY/WX    TMP DP  RH WIND       PRES   REMARKS
BIG PINEY      CLOUDY    28  28 100 E5        29.69S WCI  23
PINEDALE       CLOUDY    32  30  93 E6        29.70R WCI  26
DUBOIS         CLOUDY    34  28  80 MISG      29.60F
LANDER         FAIR      34  28  79 CALM      29.59S
RIVERTON       FAIR      31  28  89 NW9       29.59F WCI  23
CASPER         FAIR      41  32  70 S24       29.63F
DOUGLAS        FAIR      41  29  62 CALM      29.65F

$$
WYZ021-027>030-104>119-190800-
SOUTHERN WYOMING

CITY           SKY/WX    TMP DP  RH WIND       PRES   REMARKS
EVANSTON       CLOUDY    37  27  67 SW3       29.66F
KEMMERER         N/A     32  30  93 CALM      29.67S
FORT BRIDGER   FAIR      31  31 100 W5        29.69F WCI  27
ROCK SPRINGS   FAIR      38  29  70 S9        29.68S WCI  31
DIXON            N/A     32  30  91 CALM      29.77F
RAWLINS        FAIR      35  29  78 SW8       29.72F WCI  29
SARATOGA       FAIR      32  32 100 S3        29.74S
LARAMIE        FAIR      29  25  85 CALM      29.73S
CHEYENNE       FAIR      35  23  61 W10       29.68S WCI  27
TORRINGTON     FAIR      40  25  55 SE3       29.64F
PINE BLUFFS    FAIR      45  21  39 SW7       29.66S

$$




USA.gov is the U.S. government's official web portal to all federal, state and local government web resources and services.